Погода в Виннице

Погода в Виннице : погода сейчас, прогноз погоды и архив. Всё, что Вы хотите узнать о погоде в Виннице!

Хотите узнать прогноз погоды в Виннице? Тогда Вам сюда: Погода в Виннице

Поиск расширенной информации на нашем сайте:

Другие новости

Новости СМИ2

Главная страница сайта

Новости сайта

03.07.2017

Напоминаем, что на нашем специализированном сайте Метеоцентр.Азия вы можете получить высокодетализированные автоматические прогнозы погоды по пунктам России, СНГ и мира в авиационном формате (включающие направление и скорость ветра, видимость, явления погоды, количество и форму облачности, нижнюю и верхнюю границу облачности).


Погода в Виннице - сегодня

Время (UTC), дата Ветер
(°,м/с) 
Видим.   Явления Облачность Т
(°С)
Тd
(°С)
f(%) Тe
(°С)
Pmin
(гПа)
dP
(гПа)
Po
(мм)
O2
(г/м3)
Тmin Tmax R s Состояние
почвы
00 22.04.18 320 (СЗ) 13000 м    ясно 
+13.4 -0.5 38 +12  1011.4  1.6  732  281           
03 22.04.18 300 (СЗ) 13000 м    ясно 
+8.8 +0.2 55 +8  1013.3  1.3  733  286           
06 22.04.18 330 (СЗ) 13000 м    ясно 
+11.8 +1.7 50 +11  1013.9  734  283  +8         
09 22.04.18 290 (З) 13000 м    3/3 1500 м 
[Cu hum]
+15.5 +1.9 40 +15  1013.2  -0.3  734  279           
12 22.04.18 310 (СЗ) 13000 м    3/0 средняя 
[Ac trans]
+17.9 -3.3 23 +18  1011.6  -1.2  733  277           
15 22.04.18 300 (СЗ) 13000 м    3/0 верхняя 
[Ci fib]
+17.8 -2.2 26 +18  1011  -0.6  732  277           
18 22.04.18 290 (З) 13000 м    4/0 верхняя 
[Ci fib]
+13.6 -0.5 38 +14  1012.6  733  281    +19       
21 22.04.18 270 (З) 13000 м    ясно 
+11.1 +0.6 48 +11  1013.4  0.5  734  284           
00 23.04.18 270 (З) 13000 м    ясно 
+8.3 +0.9 60 +8  1014.1  0.3  734  287           
03 23.04.18 260 (З) 13000 м    6/0 верхняя 
[Ci fib]
+6 +1.5 73 +6  1014.4  734  289           
06 23.04.18 320 (СЗ) 13000 м    3/0 верхняя 
[Ci fib]
+11.1 +5.5 68 +11  1014.4  0.7  734  283  +5.7         
09 23.04.18 330 (СЗ) 13000 м    4/4 1500 м 
[Cu hum]
+16.8 +3 40 +17  1014  0.3  734  278           
12 23.04.18 290 (З) 13000 м    4/3 1500 м верхняя 
[Cu hum|Ci fib]
+18.3 -0.5 28 +19  1013.3  -0.5  734  277           
15 23.04.18 340 (С) 13000 м    8/0 верхняя 
[Ci]
+18.4 +0.2 29 +19  1012.6  -0.7  734  277           
18 23.04.18 тихо ()   13000 м    6/0 верхняя 
[Ci fib]
+15.6 +1.5 38 +16  1013.1  0.2  734  279    +19.5       
21 23.04.18 100 (В) 13000 м    ясно 
+10.1 +1.1 54 +10  1013.8  734  285           
00 24.04.18 160 (Ю) 13000 м    5/0 верхняя 
[Ci fib]
+11 +1.5 52 +11  1013  -0.7  733  284           
03 24.04.18 150 (ЮВ) 13000 м    5/0 средняя, верхняя 
[Ac trans|Ci fib]
+9 +0.9 57 +8  1012.3  -0.9  733  286           
06 24.04.18 230 (ЮЗ) 13000 м    10/8 1020 м средняя 
[Sc|Ac und]
+13.4 +1.5 44 +13  1012  0.2  733  281  +8.9         
09 24.04.18 250 (З) 13000 м  в посл. час ливневой дождь  10/6 900 м кучево-дожд., средняя 
[Cb cap|Ac und]
+13.7 +8.5 71 +13  1012.6  0.7  733  280           
12 24.04.18 310 (СЗ) 13000 м  {ливн. осадки}  8/6 960 м верхняя 
[Sc|Ci fib]
+19.8 +9.4 51 +21  1011  -0.8  733  274           
15 24.04.18 320 (СЗ) 13000 м    6/4 600 м верхняя 
[Cu hum|Ci fib]
+19.7 +7.7 46 +20  1011.1  733  274           
18 24.04.18 290 (З) 13000 м    5/0 верхняя 
[Ci fib]
+14 +7 63 +15  1012.8  733  280    +21.2  0.3     
21 24.04.18 290 (З) 13000 м    4/0 верхняя 
[Ci fib]
+12.6 +7.3 70 +12  1013.9  0.9  734  281           
00 25.04.18 230 (ЮЗ) 13000 м    4/0 верхняя 
[Ci fib]
+10.8 +9.7 93 +12  1013.7  -0.4  734  283           
Время (UTC), дата Ветер
(°,м/с) 
Видим.   Явления Облачность Т
(°С)
Тd
(°С)
f(%) Тe
(°С)
Pmin
(гПа)
dP
(гПа)
Po
(мм)
O2
(г/м3)
Тmin Tmax R s Состояние
почвы

Для получения пояснительной информации подведите курсор к названию столбца.

ПОГОДА в Виннице - архив

Всё, что Вы хотите узнать о погоде в Виннице - удобно и подробно!

Выберите нужную дату (начиная с 1 января 2015* года) и нажмите кнопку "Найти".
Будут отображены архивные сводки погоды по пункту Винница, начиная с указанной даты.


Отображать данные в формате CSV (для использования в таблицах Excel)


Внимание! Наш архив погоды предназначен исключительно для личного некоммерческого использования в познавательных целях. Если Вам необходимы официальные справки о состоянии погоды (для производственных, юридических, коммерческих и т.п. целей), обращайтесь в органы Росгидромета.

*Примечание: данная дата относится к архиву по метеостанциям СССР (Россия, СНГ, Балтия).
Архив по метеостанциям Зарубежной Европы и Азии (кроме Китая) хранится 10 дней, по другим регионам земного шара (Китай, Африка, Америка, Австралия, Океания) - 1 день.

Винница - район местоположения метеостанции


Название, широта, долгота, высота метеостанции:
Винница 49.2°ш. 28.6°д. 298 м над ур. моря [Украина]

Дополнительная информация

В oтличие oт бoльшинства пoгoдных сайтoв мы публикуем пoдрoбную метеoинфoрмацию в детальнoм прoфессиoнальнoм фoрмате.

Характеристики температуры и влажнoсти вoздуха измеряются на высoте 2 м в тени вдали oт зданий и деревьев.
Скoрoсть ветра измеряется на высoте 10 м (на урoвне рoста челoвека скoрoсть ветра ниже в 1.5-2 раза). Если метеoстанция нахoдится в гoрoде или в лесу, тo скoрoсть ветра занижена на 2-4 м/с пo сравнению с oткрытым местoм. Скoрoсть ветра над акватoриями крупных рек и oзёр, а также на вершинах хoлмoв на 2-5 м/с выше, чем в oбычных услoвиях.
Атмoсфернoе давление в разных тoчках местнoсти мoжет значительнo oтличаться oт давления на метеoстанции, в зависимoсти oт услoвий рельефа (при пoдъёме на 10 м давление пoнижается примернo на 1 мм рт.ст.).